Location: Rounton
(54.4000°N, 1.3500°W)
Time: 19:56:40
(UTC+00:00)

Altair - Pass Details

Date: 08 December 2021
Orbit: 1501 x 1683 km, 47.2° (Epoch: 16 January)

Event Time Altitude Azimuth Distance (km) Brightness Sun altitude
Rises 15:40:48 0° 238° (WSW) 4,788 12.7 -0.8°
Reaches altitude 10° 15:44:03 10° 233° (SW) 3,779 11.8 -1.1°
Maximum altitude 15:53:03 49° 162° (SSE) 1,908 8.2 -2.2°
Drops below altitude 10° 16:01:47 10° 92° (E) 3,673 9.0 -3.2°
Sets 16:04:54 0° 87° (E) 4,645 9.5 -3.5°
